Stanley, ND

4:11 AM CST on January 23, 2018 (GMT -0600)
Stanley

Weather History for K08D - December, 2012

Change the Weather History Date:

Saturday, December 8, 2012

  Actual Average (KMIB) Record (KMIB)
Temperature  
Mean Temperature 5 °F -  
Max Temperature 10 °F 27 °F 48 °F (2015)
Min Temperature 0 °F 11 °F -22 °F (2013)
Degree Days  
Heating Degree Days 60    
Moisture  
Dew Point 3 °F    
Average Humidity 88    
Maximum Humidity 100    
Minimum Humidity 78    
Precipitation  
Precipitation 0.44 in - - ()
Sea Level Pressure  
Sea Level Pressure 29.91 in    
Wind  
Wind Speed 11 mph (NE)    
Max Wind Speed 20 mph    
Max Gust Speed 28 mph    
Visibility 9 miles    
Events Snow    
Averages and records for this station are not official NWS values.
T = Trace of Precipitation, MM = Missing Value Source: NWS Daily Summary

Daily Weather History Graph

Daily Weather History Graph

Search for Another Location

Airport or City:

Trip Planner

Search our weather history database for the weather conditions in past years. The results will help you decide how hot, cold, wet, or windy it might be!

Date:

Astronomy

Dec. 08, 2012 Rise Set
Actual Time 8:28 AM CST 4:55 PM CST
Civil Twilight 7:51 AM CST 5:31 PM CST
Nautical Twilight 7:12 AM CST 6:11 PM CST
Astronomical Twilight 6:34 AM CST 6:49 PM CST
Moon 2:34 AM CST (12/8) 1:44 PM CST (12/8)
Length of Visible Light 9h 39m
Length of Day
8h 27m
Waning Crescent, 28% of the Moon is Illuminated
Dec 8
Waning Crescent
Dec 13
New
Dec 19
First Quarter
Dec 28
Full
Jan 4
Last Quarter

Hourly Weather History & Observations

Time (CST) Temp. Windchill Dew Point Humidity Pressure Visibility Wind Dir Wind Speed Gust Speed Precip Events Conditions
12:15 AM 10.4 °F -1.5 °F 8.6 °F 92% 29.83 in 10.0 mi East 8.1 mph - N/A Snow Light Snow
12:35 AM 10.4 °F -2.4 °F 8.6 °F 92% 29.82 in 10.0 mi ENE 9.2 mph - N/A Snow Light Snow
12:55 AM 8.6 °F -3.7 °F 6.8 °F 92% 29.82 in 10.0 mi East 8.1 mph - N/A   Overcast
1:15 AM 8.6 °F -3.7 °F 6.8 °F 92% 29.81 in 10.0 mi East 8.1 mph - N/A   Overcast
1:35 AM 8.6 °F -3.7 °F 6.8 °F 92% 29.80 in 10.0 mi East 8.1 mph - N/A   Overcast
1:55 AM 8.6 °F -3.7 °F 6.8 °F 92% 29.80 in 10.0 mi ENE 8.1 mph - N/A   Overcast
2:15 AM 8.6 °F -3.7 °F 6.8 °F 92% 29.80 in 10.0 mi East 8.1 mph - N/A   Overcast
2:35 AM 8.6 °F -5.5 °F 6.8 °F 92% 29.79 in 10.0 mi ENE 10.4 mph 16.1 mph N/A   Overcast
2:55 AM 8.6 °F -6.3 °F 6.8 °F 92% 29.79 in 10.0 mi East 11.5 mph - N/A   Overcast
3:15 AM 8.6 °F -7.0 °F 6.8 °F 92% 29.79 in 10.0 mi East 12.7 mph - N/A   Overcast
3:35 AM 8.6 °F -6.3 °F 6.8 °F 92% 29.79 in 10.0 mi East 11.5 mph - N/A   Overcast
3:55 AM 8.6 °F -5.5 °F 6.8 °F 92% 29.79 in 10.0 mi ENE 10.4 mph - N/A   Overcast
4:15 AM 8.6 °F -6.3 °F 6.8 °F 92% 29.77 in 10.0 mi ENE 11.5 mph - N/A   Overcast
4:35 AM 8.6 °F -5.5 °F 6.8 °F 92% 29.78 in 10.0 mi ENE 10.4 mph - N/A Snow Light Snow
4:55 AM 8.6 °F -4.7 °F 8.6 °F 100% 29.77 in 10.0 mi East 9.2 mph - N/A Snow Light Snow
5:15 AM 8.6 °F -4.7 °F 8.6 °F 100% 29.78 in 10.0 mi ENE 9.2 mph - N/A Snow Light Snow
5:35 AM 8.6 °F -4.7 °F 8.6 °F 100% 29.78 in 10.0 mi ENE 9.2 mph - N/A Snow Light Snow
5:55 AM 8.6 °F -3.7 °F 8.6 °F 100% 29.78 in 10.0 mi ENE 8.1 mph - N/A   Overcast
6:15 AM 8.6 °F -6.3 °F 8.6 °F 100% 29.78 in 10.0 mi NE 11.5 mph - N/A Snow Light Snow
6:35 AM 8.6 °F -6.3 °F 6.8 °F 92% 29.78 in 9.0 mi ENE 11.5 mph 17.3 mph 0.01 in Snow Light Snow
6:55 AM 8.6 °F -4.7 °F 6.8 °F 92% 29.78 in 10.0 mi NE 9.2 mph 19.6 mph 0.01 in Snow Light Snow
7:15 AM 8.6 °F -7.0 °F 6.8 °F 92% 29.78 in 10.0 mi ENE 12.7 mph 19.6 mph N/A Snow Light Snow
7:35 AM 8.6 °F -5.5 °F 5.0 °F 85% 29.79 in 10.0 mi ENE 10.4 mph 17.3 mph N/A   Overcast
7:55 AM 8.6 °F -3.7 °F 5.0 °F 85% 29.80 in 10.0 mi ENE 8.1 mph - N/A Snow Light Snow
8:15 AM 6.8 °F -9.3 °F 5.0 °F 92% 29.79 in 10.0 mi ENE 12.7 mph 18.4 mph N/A Snow Light Snow
8:35 AM 6.8 °F -8.6 °F 5.0 °F 92% 29.79 in 1.2 mi ENE 11.5 mph 18.4 mph 0.05 in Snow Light Snow
8:55 AM 6.8 °F -9.3 °F 5.0 °F 92% 29.79 in 1.5 mi ENE 12.7 mph 18.4 mph 0.09 in Snow Light Snow
9:15 AM 6.8 °F -9.3 °F 5.0 °F 92% 29.80 in 2.0 mi ENE 12.7 mph 19.6 mph 0.01 in Snow Light Snow
9:35 AM 6.8 °F -6.9 °F 5.0 °F 92% 29.81 in 9.0 mi ENE 9.2 mph - 0.02 in Snow Light Snow
9:55 AM 6.8 °F -9.3 °F 5.0 °F 92% 29.82 in 10.0 mi ENE 12.7 mph 18.4 mph 0.03 in Snow Light Snow
10:15 AM 6.8 °F -6.9 °F 5.0 °F 92% 29.83 in 10.0 mi ENE 9.2 mph 19.6 mph N/A Snow Light Snow
10:35 AM 6.8 °F -6.9 °F 5.0 °F 92% 29.83 in 9.0 mi ENE 9.2 mph 18.4 mph N/A Snow Light Snow
10:55 AM 8.6 °F -7.0 °F 5.0 °F 85% 29.84 in 1.5 mi ENE 12.7 mph 20.7 mph 0.03 in Snow Light Snow
11:15 AM 8.6 °F -5.5 °F 5.0 °F 85% 29.84 in 1.2 mi NE 10.4 mph 18.4 mph 0.03 in Snow Light Snow
11:35 AM 8.6 °F -8.9 °F 5.0 °F 85% 29.84 in 1.2 mi NE 16.1 mph 23.0 mph 0.07 in Snow Light Snow
11:55 AM 8.6 °F -5.5 °F 5.0 °F 85% 29.84 in 2.5 mi NE 10.4 mph 19.6 mph 0.10 in Snow Light Snow
12:15 PM 6.8 °F -8.6 °F 5.0 °F 92% 29.84 in 5.0 mi NE 11.5 mph 20.7 mph N/A Snow Light Snow
12:35 PM 6.8 °F -10.0 °F 3.2 °F 85% 29.84 in 10.0 mi NE 13.8 mph 24.2 mph 0.01 in Snow Light Snow
12:55 PM 6.8 °F -10.0 °F 1.4 °F 79% 29.84 in 10.0 mi NE 13.8 mph 24.2 mph 0.01 in   Mostly Cloudy
1:15 PM 6.8 °F -12.4 °F 1.4 °F 79% 29.84 in 10.0 mi NE 18.4 mph 25.3 mph N/A Snow Light Snow
1:35 PM 5.0 °F -14.7 °F 1.4 °F 85% 29.85 in 5.0 mi NE 18.4 mph 25.3 mph N/A Snow Light Snow
1:55 PM 5.0 °F -14.2 °F -0.4 °F 78% 29.86 in 2.5 mi NE 17.3 mph 23.0 mph 0.04 in Snow Light Snow
2:15 PM 5.0 °F -11.6 °F -0.4 °F 78% 29.86 in 1.8 mi NE 12.7 mph 20.7 mph 0.02 in Snow Light Snow
2:35 PM 5.0 °F -13.6 °F -0.4 °F 78% 29.87 in 1.2 mi NE 16.1 mph 26.5 mph 0.08 in Snow Light Snow
2:55 PM 5.0 °F -15.2 °F -0.4 °F 78% 29.88 in 5.0 mi NNE 19.6 mph 27.6 mph 0.13 in Snow Light Snow
3:15 PM 5.0 °F -14.7 °F -0.4 °F 78% 29.89 in 10.0 mi NNE 18.4 mph 25.3 mph N/A Snow Light Snow
3:35 PM 5.0 °F -15.2 °F -0.4 °F 78% 29.91 in 10.0 mi NE 19.6 mph 27.6 mph N/A   Overcast
3:55 PM 5.0 °F -13.6 °F 1.4 °F 85% 29.93 in 10.0 mi NE 16.1 mph 25.3 mph N/A   Overcast
4:15 PM 5.0 °F -13.0 °F 1.4 °F 85% 29.94 in 10.0 mi NE 15.0 mph 27.6 mph N/A   Overcast
4:35 PM 5.0 °F -11.6 °F -0.4 °F 78% 29.96 in 10.0 mi NNE 12.7 mph 26.5 mph N/A   Overcast
4:55 PM 5.0 °F -14.2 °F -0.4 °F 78% 29.98 in 10.0 mi NNE 17.3 mph 25.3 mph N/A   Overcast
5:15 PM 5.0 °F -13.6 °F -0.4 °F 78% 29.99 in 10.0 mi NNE 16.1 mph 21.9 mph N/A   Overcast
5:35 PM 3.2 °F -15.3 °F -0.4 °F 85% 30.01 in 10.0 mi NNE 15.0 mph 23.0 mph N/A   Overcast
5:55 PM 3.2 °F -17.1 °F -0.4 °F 85% 30.01 in 10.0 mi NNE 18.4 mph 26.5 mph N/A   Overcast
6:15 PM 3.2 °F -14.6 °F -0.4 °F 85% 30.03 in 10.0 mi NNE 13.8 mph 25.3 mph N/A   Overcast
6:35 PM 3.2 °F -13.9 °F -0.4 °F 85% 30.04 in 10.0 mi NNE 12.7 mph 26.5 mph N/A   Overcast
6:55 PM 3.2 °F -15.3 °F -0.4 °F 85% 30.06 in 10.0 mi NNE 15.0 mph 20.7 mph N/A   Overcast
7:15 PM 3.2 °F -14.6 °F -0.4 °F 85% 30.07 in 10.0 mi NNE 13.8 mph 20.7 mph N/A   Overcast
7:35 PM 1.4 °F -18.2 °F -0.4 °F 92% 30.08 in 10.0 mi NNE 16.1 mph 20.7 mph N/A   Overcast
7:55 PM 1.4 °F -16.1 °F -0.4 °F 92% 30.09 in 10.0 mi NNE 12.7 mph 23.0 mph N/A   Mostly Cloudy
8:15 PM 1.4 °F -17.6 °F -0.4 °F 92% 30.10 in 10.0 mi NNE 15.0 mph 23.0 mph N/A   Scattered Clouds
8:35 PM 1.4 °F -16.9 °F -0.4 °F 92% 30.11 in 10.0 mi NNE 13.8 mph 20.7 mph N/A   Partly Cloudy
8:55 PM 1.4 °F -14.5 °F -2.2 °F 85% 30.12 in 10.0 mi NNE 10.4 mph 18.4 mph N/A   Partly Cloudy
9:15 PM 1.4 °F -16.9 °F -2.2 °F 85% 30.13 in 10.0 mi NNE 13.8 mph - N/A   Clear
9:35 PM -0.4 °F -17.6 °F -2.2 °F 92% 30.14 in 10.0 mi NNE 11.5 mph - N/A   Clear
9:55 PM -0.4 °F -17.6 °F -2.2 °F 92% 30.15 in 10.0 mi NNE 11.5 mph - N/A   Clear
10:15 PM -0.4 °F -16.7 °F -2.2 °F 92% 30.16 in 10.0 mi North 10.4 mph - N/A   Clear
10:35 PM -0.4 °F -16.7 °F -4.0 °F 85% 30.17 in 10.0 mi North 10.4 mph - N/A   Clear
10:55 PM -0.4 °F -17.6 °F -4.0 °F 85% 30.18 in 10.0 mi North 11.5 mph - N/A   Clear
11:15 PM -0.4 °F -17.6 °F -4.0 °F 85% 30.19 in 10.0 mi North 11.5 mph - N/A   Clear
11:35 PM -0.4 °F -17.6 °F -4.0 °F 85% 30.20 in 10.0 mi North 11.5 mph - N/A   Clear
11:55 PM -0.4 °F -16.7 °F -4.0 °F 85% 30.21 in 10.0 mi North 10.4 mph - N/A   Clear